Tracking 19149 objects as of 21-Apr-2018
HD Live streaming from Space Station
objects crossing your sky now

FENGYUN 1C DEB

Track FENGYUN 1C DEB now!
10-day predictions


NORAD ID: 37437
Int'l Code: 1999-025EHF
Perigee: 765.6 km
Apogee: 940.4 km
Inclination: 98.7 °
Period: 101.8 minutes
Semi major axis: 7224 km
RCS: 0.0107 m2 (small)
Launch date: May 10, 1999
Source: People's Republic of China (PRC)
Launch site: Taiyaun Space Center, China (TSC)

Note: This is SATELLITE DEBRIS
aabbcc
Your satellite tracking list
Your tracking list is empty




NASA's NSSDC Master Catalog

Two Line Element Set (TLE):
1 37437U 99025EHF 18110.34592800  .00000165  00000-0  10171-3 0  9996
2 37437  98.7494 156.5636 0121019 135.8410 284.3633 14.13956139486846
Source of the keplerian elements: AFSPC